Minneapolis Flying Cloud, MN

8:54 PM CDT on April 26, 2017 (GMT -0500)
Flying Cloud

Weather History for KFCM - February, 2013

Change the Weather History Date:

Tuesday, February 19, 2013

  Actual Average Record
Temperature  
Mean Temperature 4 °F -  
Max Temperature 7 °F 29 °F 59 °F (2017)
Min Temperature -4 °F 14 °F -11 °F (2008)
Degree Days  
Heating Degree Days 62    
Moisture  
Dew Point -6 °F    
Average Humidity 65    
Maximum Humidity 73    
Minimum Humidity 55    
Precipitation  
Precipitation 0.00 in - - ()
Sea Level Pressure  
Sea Level Pressure 30.14 in    
Wind  
Wind Speed 15 mph (NW)    
Max Wind Speed 21 mph    
Max Gust Speed 30 mph    
Visibility 9 miles    
Events      
Averages and records for this station are not official NWS values.
T = Trace of Precipitation, MM = Missing Value Source: NWS Daily Summary

Daily Weather History Graph

Daily Weather History Graph

Search for Another Location

Airport or City:

Trip Planner

Search our weather history database for the weather conditions in past years. The results will help you decide how hot, cold, wet, or windy it might be!

Date:

Astronomy

Feb. 19, 2013 Rise Set
Actual Time 7:07 AM CST 5:48 PM CST
Civil Twilight 6:37 AM CST 6:18 PM CST
Nautical Twilight 6:03 AM CST 6:52 PM CST
Astronomical Twilight 5:30 AM CST 7:26 PM CST
Moon 12:12 PM CST (2/19) 2:48 AM CST (2/19)
Length of Visible Light 11h 40m
Length of Day
10h 40m
Waxing Gibbous, 67% of the Moon is Illuminated
Feb 19
Waxing Gibbous
Feb 25
Full
Mar 4
Last Quarter
Mar 11
New
Mar 19
First Quarter

Hourly Weather History & Observations

Time (CST) Temp. Windchill Dew Point Humidity Pressure Visibility Wind Dir Wind Speed Gust Speed Precip Events Conditions
12:53 AM 7.0 °F -10.4 °F -0.0 °F 73% 29.88 in 10.0 mi NW 15.0 mph 21.9 mph 0.00 in   Overcast
1:53 AM 7.0 °F -10.4 °F -0.9 °F 70% 29.90 in 8.0 mi WNW 15.0 mph 21.9 mph 0.00 in   Overcast
2:53 AM 5.0 °F -13.0 °F -2.0 °F 73% 29.93 in 5.0 mi NW 15.0 mph 26.5 mph 0.00 in   Haze
3:40 AM 5.0 °F -13.0 °F -2.2 °F 72% 29.88 in 9.0 mi NW 15.0 mph - N/A   Overcast
3:53 AM 5.0 °F -14.2 °F -2.9 °F 70% 29.94 in 7.0 mi NW 17.3 mph 24.2 mph N/A   Overcast
4:53 AM 5.0 °F -15.7 °F -4.0 °F 66% 29.97 in 8.0 mi NW 20.7 mph 29.9 mph N/A   Overcast
5:53 AM 3.9 °F -16.1 °F -5.1 °F 66% 29.99 in 10.0 mi NW 18.4 mph 28.8 mph N/A   Overcast
6:53 AM 3.0 °F -16.1 °F -5.1 °F 69% 30.04 in 10.0 mi NW 16.1 mph 24.2 mph N/A   Overcast
7:53 AM 1.0 °F -17.3 °F -7.1 °F 69% 30.08 in 10.0 mi WNW 13.8 mph - N/A   Overcast
8:26 AM 1.4 °F -18.2 °F -7.6 °F 66% 30.03 in 9.0 mi WNW 16.1 mph 23.0 mph N/A   Scattered Clouds
8:53 AM 1.9 °F -18.1 °F -7.1 °F 66% 30.12 in 10.0 mi NW 17.3 mph - N/A   Clear
9:53 AM 3.0 °F -14.1 °F -7.1 °F 63% 30.13 in 10.0 mi NW 12.7 mph 24.2 mph N/A   Clear
12:53 PM 5.0 °F -14.7 °F -7.1 °F 58% 30.19 in 10.0 mi NW 18.4 mph 25.3 mph N/A   Clear
1:53 PM 6.1 °F -12.2 °F -7.1 °F 55% 30.19 in 10.0 mi WNW 16.1 mph 24.2 mph N/A   Clear
2:53 PM 5.0 °F -15.2 °F -7.1 °F 58% 30.22 in 10.0 mi West 19.6 mph 26.5 mph N/A   Clear
3:53 PM 5.0 °F -12.3 °F -7.1 °F 58% 30.24 in 10.0 mi WNW 13.8 mph - N/A   Clear
4:53 PM 6.1 °F -10.2 °F -7.1 °F 55% 30.27 in 10.0 mi NW 12.7 mph - N/A   Clear
6:53 PM 3.0 °F -10.5 °F -9.0 °F 57% 30.33 in 10.0 mi WNW 8.1 mph - N/A   Clear
7:53 PM 1.9 °F -11.8 °F -9.0 °F 60% 30.35 in 10.0 mi NW 8.1 mph - N/A   Clear
8:53 PM 1.0 °F -11.7 °F -9.9 °F 60% 30.37 in 10.0 mi NW 6.9 mph - N/A   Clear
9:53 PM -0.0 °F -15.3 °F -9.9 °F 63% 30.38 in 10.0 mi NNW 9.2 mph - N/A   Clear
10:53 PM -0.9 °F -15.3 °F -9.9 °F 66% 30.41 in 10.0 mi West 8.1 mph - N/A   Clear
11:53 PM -4.0 °F - -11.0 °F 72% 30.42 in 10.0 mi Calm Calm - N/A   Clear